Temp
3 1 -0 0 1 -1 -3 -2 -2 1 3 -1 -5 -8 -9 -10 -12 -12 -13 -13 -13 -12 -12 -10 -9 -8 -6 -5 -4 -4 -3 -1 2 5 8 9 10 10 10 10 12 11 10 10
0 0 1 2 1 1 1 -4 -1 1 2 2 -6 -9 -11 -10 -11 -12 -13 -13 -14 -12 -11 -11 -10 -9 -9 -7 -6 -5 -5 -4 -3 -1 2 5 8 9 9 10 10 11 11 10
0 1 2 2 -0 -0 -0 -3 -0 -2 1 1 -4 -7 -10 -12 -11 -12 -13 -14 -14 -14 -13 -13 -12 -11 -10 -9 -8 -7 -6 -5 -4 -4 -1 2 6 7 9 9 9 10 11 11
-0 1 1 1 0 -1 -1 1 0 0 -2 -2 -1 -3 -10 -11 -11 -12 -14 -14 -15 -14 -13 -13 -13 -12 -12 -11 -10 -8 -7 -7 -6 -4 -3 -1 1 4 5 7 10 9 10 11
1 0 1 -0 -0 -1 -1 -0 -1 -0 -1 -3 -1 -5 -11 -12 -12 -12 -13 -14 -15 -15 -15 -14 -13 -13 -12 -12 -11 -10 -8 -7 -6 -5 -7 -4 -2 0 3 6 8 9 9 10
-0 1 1 0 -0 -0 -0 -2 -1 -2 -4 -8 -3 -3 -8 -11 -13 -13 -14 -15 -15 -16 -15 -14 -13 -13 -12 -12 -11 -11 -9 -9 -7 -6 -5 -6 -3 -1 2 6 5 7 8 9
-1 -0 -0 -0 -2 -1 -2 -4 -4 -4 -5 -4 -6 -5 -11 -12 -14 -14 -15 -15 -15 -16 -16 -15 -14 -13 -12 -12 -12 -11 -11 -10 -8 -8 -6 -5 -5 -3 -1 1 3 6 7 8
-4 -2 -1 -1 -1 -2 -2 -2 -5 -5 -5 -4 -8 -9 -11 -16 -14 -15 -15 -16 -16 -15 -16 -16 -16 -15 -14 -13 -13 -12 -12 -11 -10 -8 -8 -7 -7 -4 -3 -0 3 3 5 7
-7 -4 -2 -1 -2 -3 -3 -3 -4 -5 -6 -5 -10 -15 -15 -13 -14 -15 -15 -16 -16 -16 -16 -16 -16 -16 -15 -14 -13 -13 -13 -12 -11 -10 -8 -8 -7 -5 -4 -1 -0 2 3 5
-7 -9 -3 -2 -2 -3 -4 -5 -6 -7 -7 -6 -11 -15 -10 -13 -15 -16 -17 -17 -16 -16 -16 -15 -16 -16 -15 -15 -14 -13 -13 -13 -12 -11 -10 -8 -8 -7 -5 -3 -1 1 4 3
-6 -7 -5 -3 -6 -6 -5 -10 -11 -12 -11 -7 -6 -9 -20 -17 -17 -18 -17 -17 -17 -17 -17 -16 -16 -16 -16 -15 -14 -14 -13 -12 -12 -11 -10 -9 -8 -7 -6 -5 -3 -1 2 4
-6 -8 -8 -7 -8 -8 -9 -14 -17 -11 -9 -10 -10 -10 -20 -20 -17 -18 -17 -16 -16 -17 -17 -17 -16 -16 -15 -16 -15 -14 -14 -13 -12 -12 -11 -10 -9 -8 -7 -5 -4 -2 -0 2
-8 -9 -10 -8 -10 -8 -10 -11 -14 -17 -16 -15 -12 -10 -19 -18 -18 -16 -17 -16 -16 -17 -17 -16 -16 -16 -16 -16 -16 -15 -15 -14 -13 -12 -11 -10 -10 -9 -8 -6 -5 -4 -2 1
-8 -16 -11 -10 -9 -11 -12 -10 -11 -13 -16 -17 -14 -15 -18 -20 -21 -17 -16 -16 -17 -17 -17 -17 -17 -17 -17 -16 -16 -15 -15 -15 -14 -13 -12 -11 -10 -10 -9 -8 -6 -6 -4 -2
-12 -13 -12 -14 -15 -14 -14 -11 -13 -13 -16 -15 -17 -19 -15 -19 -22 -16 -17 -17 -17 -17 -17 -17 -18 -18 -18 -17 -16 -16 -15 -15 -15 -14 -13 -12 -11 -10 -9 -8 -7 -6 -5 -4
-18 -15 -16 -16 -13 -13 -15 -14 -16 -15 -16 -19 -25 -18 -20 -16 -17 -17 -16 -17 -17 -17 -17 -18 -18 -18 -18 -18 -17 -17 -16 -16 -15 -14 -14 -12 -11 -11 -10 -9 -8 -7 -6 -5
-21 -19 -18 -17 -14 -15 -16 -15 -14 -16 -20 -20 -19 -18 -25 -23 -18 -15 -15 -16 -17 -17 -18 -18 -18 -18 -19 -18 -18 -18 -17 -16 -16 -15 -14 -13 -12 -11 -10 -10 -9 -8 -7 -6
-23 -23 -22 -18 -19 -15 -13 -22 -19 -16 -18 -21 -20 -20 -18 -16 -15 -15 -14 -15 -15 -17 -18 -18 -18 -18 -18 -19 -18 -18 -17 -17 -16 -15 -15 -14 -13 -12 -11 -10 -9 -8 -7 -7
-20 -23 -21 -16 -19 -14 -15 -16 -18 -18 -14 -21 -20 -18 -15 -15 -16 -13 -13 -15 -15 -16 -17 -17 -18 -18 -18 -18 -19 -18 -17 -17 -16 -16 -15 -15 -14 -13 -12 -11 -10 -9 -8 -7
-20 -25 -18 -24 -17 -14 -13 -19 -17 -17 -17 -15 -16 -16 -16 -17 -20 -18 -14 -14 -15 -16 -17 -17 -17 -18 -18 -18 -18 -18 -18 -17 -17 -16 -16 -15 -15 -14 -13 -12 -10 -10 -9 -8
-18 -22 -18 -21 -21 -17 -18 -18 -16 -16 -12 -11 -12 -12 -15 -20 -14 -13 -14 -14 -15 -16 -16 -17 -17 -17 -18 -18 -18 -18 -18 -18 -17 -17 -17 -16 -15 -14 -14 -13 -11 -10 -10 -9
-14 -17 -19 -25 -21 -13 -18 -20 -15 -12 -11 -11 -12 -12 -13 -13 -12 -12 -13 -14 -15 -15 -15 -16 -16 -16 -17 -18 -17 -18 -18 -18 -18 -17 -17 -16 -16 -15 -14 -13 -12 -11 -10 -9
-14 -15 -14 -14 -13 -15 -16 -10 -9 -10 -10 -11 -11 -11 -12 -13 -12 -12 -13 -13 -14 -15 -15 -16 -16 -16 -17 -18 -17 -18 -18 -18 -18 -18 -17 -17 -16 -15 -15 -14 -13 -12 -12 -11
-19 -22 -19 -16 -17 -17 -13 -10 -10 -10 -10 -10 -11 -11 -12 -12 -13 -13 -13 -13 -14 -15 -15 -16 -16 -16 -16 -17 -18 -18 -18 -18 -18 -18 -17 -17 -17 -16 -16 -15 -14 -13 -14 -13
-19 -21 -21 -20 -16 -15 -12 -11 -10 -10 -11 -11 -12 -12 -12 -13 -13 -14 -14 -14 -14 -15 -15 -16 -16 -16 -16 -17 -17 -18 -18 -18 -18 -18 -18 -18 -17 -17 -16 -16 -15 -14 -15 -15
-20 -19 -16 -15 -16 -15 -13 -11 -11 -12 -13 -14 -14 -13 -14 -14 -15 -15 -15 -15 -15 -15 -15 -16 -16 -17 -17 -18 -18 -18 -18 -18 -18 -18 -18 -18 -18 -17 -17 -16 -16 -15 -15 -14
Height
1500 1509 1520 1519 1516 1520 1524 1526 1527 1513 1508 1514 1526 1534 1537 1537 1535 1532 1529 1525 1520 1514 1510 1506 1499 1492 1487 1481 1474 1467 1461 1456 1451 1446 1446 1446 1450 1453 1456 1460 1461 1463 1463 1465
1510 1519 1518 1517 1519 1519 1519 1530 1523 1513 1509 1509 1526 1536 1538 1537 1535 1534 1531 1528 1522 1515 1510 1506 1499 1493 1488 1481 1474 1469 1463 1457 1451 1446 1444 1442 1444 1448 1448 1451 1455 1458 1460 1462
1515 1522 1518 1518 1522 1521 1520 1526 1518 1521 1510 1507 1518 1529 1536 1537 1535 1535 1533 1531 1527 1522 1514 1509 1501 1494 1490 1482 1474 1468 1463 1457 1449 1449 1438 1438 1437 1442 1443 1447 1447 1454 1457 1459
1520 1521 1520 1522 1525 1528 1522 1515 1515 1513 1516 1520 1508 1513 1534 1535 1534 1533 1532 1531 1527 1523 1517 1511 1502 1496 1489 1482 1478 1471 1464 1459 1453 1444 1436 1438 1436 1437 1436 1438 1445 1448 1452 1455
1525 1523 1523 1526 1528 1526 1524 1516 1513 1509 1510 1516 1506 1524 1534 1535 1536 1534 1533 1531 1528 1524 1517 1510 1504 1498 1493 1485 1478 1470 1464 1457 1452 1441 1450 1430 1432 1433 1434 1432 1435 1441 1447 1450
1524 1523 1524 1526 1525 1523 1520 1517 1510 1509 1518 1545 1513 1511 1525 1537 1539 1537 1535 1532 1529 1524 1518 1511 1505 1499 1492 1485 1478 1470 1465 1459 1451 1449 1435 1437 1426 1426 1427 1424 1431 1432 1440 1445
1527 1525 1525 1527 1527 1522 1522 1525 1529 1526 1528 1524 1522 1520 1532 1538 1540 1539 1537 1533 1528 1525 1519 1512 1504 1497 1490 1484 1478 1470 1468 1458 1453 1449 1440 1429 1433 1426 1420 1426 1422 1423 1430 1436
1544 1533 1529 1530 1531 1532 1527 1525 1541 1542 1535 1519 1531 1537 1532 1538 1538 1538 1536 1533 1529 1523 1518 1512 1507 1500 1492 1483 1480 1471 1470 1459 1452 1446 1445 1434 1437 1424 1421 1418 1417 1418 1420 1428
1556 1541 1531 1530 1531 1531 1530 1532 1535 1535 1530 1526 1542 1548 1539 1537 1537 1536 1534 1531 1527 1522 1517 1512 1507 1501 1494 1489 1479 1478 1468 1459 1456 1453 1441 1440 1428 1422 1418 1413 1416 1415 1417 1418
1549 1561 1534 1531 1531 1532 1536 1540 1543 1542 1543 1529 1548 1562 1530 1537 1538 1536 1533 1530 1526 1523 1517 1511 1506 1500 1496 1490 1485 1474 1467 1459 1457 1450 1440 1430 1428 1422 1421 1413 1409 1407 1411 1414
1541 1549 1540 1532 1543 1545 1541 1555 1558 1563 1559 1536 1528 1530 1547 1541 1539 1537 1533 1529 1525 1521 1516 1510 1506 1501 1494 1488 1480 1473 1466 1460 1458 1448 1437 1429 1425 1422 1414 1413 1404 1405 1405 1408
1540 1548 1550 1545 1548 1546 1550 1565 1575 1566 1554 1551 1548 1535 1538 1538 1537 1535 1531 1527 1524 1520 1516 1510 1504 1498 1492 1487 1480 1474 1465 1458 1453 1445 1438 1429 1426 1422 1416 1408 1406 1404 1405 1405
1539 1548 1561 1545 1555 1548 1555 1559 1564 1573 1573 1571 1557 1534 1536 1535 1534 1532 1528 1524 1521 1518 1513 1509 1503 1497 1490 1483 1477 1473 1466 1458 1454 1443 1435 1430 1426 1419 1415 1408 1407 1405 1403 1397
1536 1557 1551 1557 1547 1554 1559 1554 1556 1562 1579 1573 1553 1545 1539 1535 1533 1528 1525 1522 1518 1515 1512 1507 1502 1497 1491 1484 1477 1469 1463 1457 1449 1444 1438 1433 1431 1424 1415 1411 1408 1405 1399 1397
1539 1553 1550 1553 1556 1555 1557 1553 1556 1558 1562 1564 1554 1557 1534 1532 1528 1524 1522 1518 1515 1511 1509 1505 1500 1496 1490 1484 1479 1474 1467 1460 1455 1447 1444 1441 1434 1425 1422 1415 1408 1398 1395 1395
1543 1558 1557 1561 1552 1552 1558 1554 1557 1555 1556 1560 1570 1547 1527 1525 1524 1520 1517 1515 1511 1508 1506 1503 1499 1495 1489 1484 1478 1472 1468 1464 1457 1449 1443 1439 1433 1427 1418 1415 1404 1399 1396 1395
1553 1558 1566 1572 1554 1560 1562 1547 1544 1548 1552 1553 1558 1534 1527 1523 1520 1516 1511 1510 1507 1505 1503 1499 1496 1492 1488 1483 1478 1473 1466 1460 1456 1450 1444 1437 1430 1422 1419 1415 1405 1400 1397 1393
1556 1563 1569 1572 1572 1574 1535 1540 1540 1542 1539 1540 1535 1527 1521 1518 1515 1511 1509 1506 1504 1502 1500 1497 1493 1489 1486 1481 1477 1473 1468 1462 1455 1450 1444 1438 1432 1427 1423 1417 1408 1402 1396 1393
1542 1556 1572 1563 1579 1544 1536 1535 1539 1541 1528 1521 1524 1518 1515 1515 1513 1505 1505 1503 1501 1498 1496 1493 1490 1487 1483 1480 1476 1471 1467 1462 1457 1452 1447 1442 1436 1431 1425 1420 1412 1405 1398 1394
1544 1546 1551 1584 1570 1552 1521 1524 1526 1530 1540 1508 1511 1511 1512 1514 1521 1505 1501 1500 1498 1496 1494 1491 1488 1485 1482 1478 1474 1470 1466 1461 1456 1451 1446 1441 1438 1433 1429 1424 1417 1408 1400 1398
1548 1559 1556 1568 1573 1538 1516 1520 1526 1542 1516 1500 1504 1505 1508 1511 1505 1501 1499 1497 1496 1493 1491 1488 1485 1482 1479 1476 1472 1469 1465 1461 1457 1451 1447 1442 1437 1436 1432 1426 1418 1411 1407 1401
1523 1543 1552 1574 1571 1530 1509 1522 1521 1497 1494 1498 1500 1502 1502 1500 1498 1496 1495 1493 1492 1490 1488 1485 1482 1479 1476 1473 1471 1467 1464 1461 1457 1453 1448 1444 1440 1436 1432 1427 1422 1417 1412 1405
1520 1508 1512 1512 1503 1489 1490 1485 1488 1490 1492 1495 1496 1497 1496 1495 1493 1492 1490 1489 1487 1486 1483 1482 1478 1476 1474 1471 1468 1465 1463 1460 1456 1453 1449 1445 1441 1437 1434 1430 1425 1421 1418 1414
1505 1504 1509 1502 1486 1484 1485 1484 1485 1487 1489 1491 1491 1491 1491 1490 1489 1487 1486 1484 1482 1481 1479 1477 1475 1472 1470 1468 1465 1463 1461 1458 1454 1452 1448 1444 1441 1437 1434 1432 1428 1424 1420 1419
1503 1505 1505 1499 1483 1481 1480 1480 1483 1486 1487 1487 1488 1487 1486 1485 1483 1482 1480 1478 1477 1475 1474 1472 1470 1468 1466 1464 1462 1460 1458 1456 1454 1451 1448 1445 1442 1439 1436 1432 1430 1429 1428 1426
1500 1499 1498 1493 1488 1486 1483 1482 1483 1485 1486 1485 1484 1483 1482 1481 1479 1478 1474 1472 1471 1469 1468 1466 1464 1463 1462 1460 1458 1457 1455 1454 1452 1450 1447 1444 1442 1440 1438 1436 1435 1434 1433 1432
Wind_Speed
14 10 6 5 6 4 3 2 3 5 3 5 5 5 5 9 16 19 22 25 31 32 31 29 30 29 29 29 29 27 22 14 10 3 18 19 32 34 32 29 27 26 24 22
7 9 5 6 7 5 4 1 3 5 7 2 6 4 2 4 10 19 22 28 30 35 34 34 32 31 32 31 30 29 27 22 16 10 2 11 20 29 27 29 26 21 22 23
8 3 5 4 7 12 5 3 3 6 4 4 8 3 5 2 9 13 23 24 28 31 34 36 35 34 33 34 33 31 30 27 23 17 8 5 14 22 27 29 25 23 26 25
7 5 6 7 6 5 5 4 6 9 6 3 6 7 2 1 4 13 19 26 29 31 31 32 35 35 36 35 32 29 28 27 27 20 12 6 2 10 17 28 36 28 29 30
2 4 4 4 7 3 7 8 10 12 11 4 3 2 4 2 3 8 16 21 26 29 30 33 34 34 33 33 34 31 29 27 25 23 21 13 5 6 11 26 30 31 32 33
2 2 3 3 6 3 8 6 8 1 3 2 2 2 4 2 3 6 14 19 24 27 29 30 31 32 33 33 33 32 30 29 27 23 24 18 12 7 4 17 23 32 33 33
5 2 3 10 4 5 8 4 4 5 3 4 3 0 4 3 1 2 10 19 24 26 30 31 32 35 35 35 35 34 32 30 28 26 23 22 18 12 4 7 15 30 36 38
3 5 5 7 1 4 6 1 2 5 2 6 1 5 4 4 4 6 10 14 22 28 30 31 32 32 33 34 34 34 33 32 30 27 23 21 19 15 11 4 12 20 29 36
3 4 4 2 3 3 5 3 1 4 3 2 3 6 4 5 1 10 14 18 24 28 30 31 32 31 31 31 32 32 33 31 29 28 25 22 21 18 15 10 9 15 23 31
2 3 2 5 1 8 5 2 2 2 3 5 5 6 3 4 6 7 13 20 23 26 28 30 31 32 30 29 29 29 30 31 30 29 26 26 24 21 17 12 10 12 25 29
3 3 5 2 5 2 3 4 4 2 1 3 4 6 5 4 3 7 15 20 21 24 26 28 29 29 30 29 29 29 30 29 29 29 29 26 25 22 19 16 12 11 16 29
3 3 3 0 3 7 4 4 4 3 5 1 2 6 2 4 6 10 18 19 21 21 23 25 27 29 29 30 29 29 30 30 30 30 29 28 26 24 20 17 13 12 14 20
3 0 2 2 4 1 4 2 3 3 1 5 2 5 2 6 10 12 17 21 21 22 22 25 26 28 30 31 31 29 29 30 29 30 30 29 27 25 23 18 16 12 12 14
4 2 6 6 4 3 2 3 2 4 2 2 6 8 5 6 7 17 19 20 24 18 20 26 27 27 27 28 30 31 30 30 31 29 29 28 27 26 25 21 17 15 10 11
3 5 2 1 2 2 4 4 3 5 5 5 3 5 13 9 7 16 19 20 21 18 19 25 26 27 27 27 27 28 29 29 29 29 27 26 25 25 22 20 17 15 12 10
3 2 3 4 0 3 3 7 6 5 3 6 3 10 8 8 14 21 22 19 21 19 20 25 25 25 25 26 27 28 28 28 29 28 27 26 25 25 25 22 20 17 12 10
3 4 3 4 3 3 6 7 7 3 4 6 3 8 2 6 17 21 26 24 23 18 20 25 24 24 23 24 25 26 28 28 28 27 25 26 26 25 26 25 22 18 14 10
4 4 2 3 3 3 5 1 3 6 8 9 8 9 17 21 23 25 21 16 13 14 21 21 22 22 21 22 22 23 23 25 26 26 24 24 25 24 24 25 24 19 16 12
2 4 2 4 3 6 3 5 7 6 7 8 10 13 19 14 15 15 5 9 12 16 18 20 20 21 21 21 21 22 22 22 23 24 23 23 24 23 24 25 25 23 18 14
3 4 4 3 4 5 6 3 9 9 4 16 21 16 12 2 3 4 11 18 17 18 19 18 18 19 20 19 20 20 22 22 23 23 24 23 21 20 23 23 23 24 21 18
1 2 5 3 3 8 5 14 14 5 6 16 22 15 12 6 11 17 22 21 20 19 18 18 18 18 19 19 18 19 20 21 21 21 21 20 18 16 18 21 20 23 24 23
7 7 4 3 2 8 20 9 8 5 10 9 11 9 14 17 18 19 19 19 18 19 18 17 20 18 17 18 18 17 19 19 19 19 19 18 17 14 14 17 18 19 24 26
2 6 5 9 6 2 45 8 24 9 3 4 7 9 13 17 19 18 20 19 18 19 20 19 20 19 16 17 18 17 18 18 18 17 17 17 15 13 12 12 16 19 24 27
3 4 2 3 3 12 23 35 14 15 13 13 13 14 17 20 20 21 21 20 20 19 20 20 21 20 18 18 17 17 18 17 18 17 16 16 15 13 11 9 10 14 21 24
2 5 4 6 10 14 17 24 29 24 19 17 14 14 16 17 21 22 24 23 22 21 20 20 22 21 19 18 17 17 17 16 16 15 15 14 14 13 11 11 8 8 12 17
5 4 3 4 12 3 7 3 0 5 7 9 11 14 14 17 21 22 25 24 23 23 21 22 22 22 19 18 18 18 17 15 15 14 14 13 13 12 12 10 6 4 2 1
Wind_Direction
36 62 50 64 73 149 160 179 242 291 314 95 101 112 80 55 46 29 17 10 6 5 2 2 3 1 358 0 358 354 346 339 338 253 220 206 222 225 218 226 240 252 233 225
45 42 340 81 55 23 11 105 290 288 313 356 168 120 162 82 61 41 21 12 6 4 5 3 4 3 3 360 358 355 353 346 348 347 274 234 222 217 219 211 227 244 227 216
81 342 44 96 47 14 331 206 262 250 270 255 132 195 195 202 71 36 24 16 12 6 1 2 3 5 2 3 2 358 353 349 346 336 342 237 218 221 213 219 214 226 220 218
79 351 64 40 20 9 305 1 317 307 331 271 148 288 254 218 42 15 9 9 6 4 3 3 2 4 4 3 1 359 357 354 346 343 354 331 223 227 209 213 221 214 222 218
227 14 47 68 332 304 251 312 285 272 271 21 245 128 269 115 353 3 358 358 1 2 360 1 1 1 3 3 2 0 359 355 351 352 332 360 324 259 242 215 214 210 217 220
50 327 58 113 308 251 282 298 284 109 105 17 310 342 282 359 348 337 340 351 353 356 359 359 358 359 0 4 3 3 0 360 355 348 346 341 340 323 276 229 213 203 217 215
341 15 355 36 348 322 349 6 345 349 353 243 331 31 244 134 78 356 338 343 351 354 358 358 358 357 357 360 1 4 2 3 359 351 350 348 334 334 327 243 215 203 212 213
34 340 24 358 12 284 299 357 173 281 274 282 343 247 274 174 119 1 351 344 351 356 356 356 358 356 355 357 357 1 2 3 2 358 351 354 337 336 328 269 235 225 215 210
86 276 341 76 28 7 337 43 139 259 258 297 283 298 288 175 17 353 347 346 351 349 351 352 353 356 356 353 358 356 359 5 3 358 355 347 350 342 329 316 255 231 228 214
221 326 275 323 93 49 87 327 36 8 287 284 297 283 252 244 310 327 332 338 340 346 347 349 350 351 354 355 353 357 358 2 2 360 1 356 350 346 331 315 290 247 226 234
127 128 288 25 27 359 354 16 13 141 187 279 304 277 205 225 274 299 315 327 334 341 346 346 345 348 351 354 355 355 357 359 358 2 4 2 353 344 341 328 313 282 239 232
186 158 237 146 44 69 85 152 129 128 291 260 257 266 236 213 274 301 313 326 332 335 341 343 344 345 348 354 357 357 357 357 358 1 3 4 358 351 337 338 326 297 261 230
227 321 356 309 346 127 95 155 159 126 109 231 180 266 204 258 279 300 316 327 329 329 337 342 345 348 348 350 353 358 358 358 357 360 1 1 0 360 352 341 331 316 283 245
151 123 165 196 202 131 206 193 176 164 140 226 234 296 305 293 286 309 323 323 324 322 332 342 344 346 347 349 352 352 356 357 358 0 360 360 360 1 358 352 338 324 310 264
98 177 166 211 183 126 196 228 198 204 210 185 250 255 288 274 263 299 308 319 323 321 328 341 342 343 345 346 350 354 354 355 356 357 359 358 359 2 2 355 352 344 320 292
3 187 99 321 193 141 270 242 230 244 213 267 338 286 230 267 290 298 307 314 317 315 323 335 337 338 342 345 347 349 351 355 353 355 356 357 360 2 6 2 3 360 340 302
87 128 92 262 16 32 318 220 195 218 197 165 207 234 317 290 291 304 311 312 309 308 319 329 333 336 339 341 343 347 347 349 353 353 355 358 1 4 5 8 9 2 358 340
125 91 86 189 35 9 248 267 147 205 236 218 268 266 263 270 292 298 304 303 309 313 321 325 330 334 337 338 338 342 345 347 349 351 356 360 3 7 5 8 14 14 12 4
78 123 80 136 186 298 336 196 173 166 278 196 215 249 267 288 305 302 324 327 325 327 326 324 329 332 335 336 336 340 345 346 347 352 355 1 3 8 9 9 17 23 24 27
66 76 114 94 145 224 233 197 142 113 291 204 205 237 249 236 2 260 324 325 326 323 322 321 325 329 332 335 335 342 346 348 348 350 354 357 1 7 15 11 18 33 42 48
127 10 168 171 215 287 206 148 134 92 236 183 206 230 218 196 239 299 307 312 314 312 316 317 318 326 329 331 334 341 345 347 349 348 350 351 358 1 13 18 22 37 47 55
170 151 188 86 95 278 152 123 166 205 148 185 212 244 247 274 287 292 298 299 303 306 309 313 313 319 324 324 328 337 341 343 347 349 348 351 350 356 5 18 29 44 50 56
262 191 180 184 211 160 179 203 198 174 195 247 257 276 275 278 289 301 301 302 303 305 306 307 308 312 319 319 321 327 335 337 343 347 348 349 353 351 357 7 26 43 53 51
255 187 188 47 276 226 214 217 220 227 255 283 281 281 281 285 294 296 301 303 302 303 301 302 301 305 310 311 314 315 324 331 335 340 345 347 350 355 349 358 15 32 44 37
173 145 177 271 283 273 258 237 243 260 266 268 276 281 283 288 293 300 299 299 299 299 298 296 295 298 302 302 304 307 313 321 325 330 336 341 345 351 357 352 353 28 47 29
195 194 182 241 344 303 16 61 310 257 295 296 293 290 291 293 294 296 295 297 296 293 292 292 292 292 296 292 296 299 303 310 314 318 324 331 337 345 349 351 348 310 285 256